Location: Aufkirchen
(47.9603°N, 11.3653°E)
Time: 23:15:08
(UTC+02:00)

Altair - Pass Details

Date: 03 August 2021
Orbit: 1501 x 1682 km, 47.2° (Epoch: 22 September)

Event Time Altitude Azimuth Distance (km) Brightness Sun altitude
Exits shadow 03:11:59 26° 231° (SW) 2,686 8.2 -20.0°
Maximum altitude 03:17:49 67° 156° (SSE) 1,634 7.4 -19.5°
Drops below altitude 10° 03:26:53 10° 77° (ENE) 3,659 10.1 -18.7°
Sets 03:29:54 0° 75° (ENE) 4,637 10.8 -18.5°
